AZU4496 SBPV-SBEG

Flight info

Callsign AZU4496
Flight time 1h 6m
Altitude 35000
Route MUPEG UZ74 IGAPO
Aircraft E295/M-SDFGHIRWY/H

Departure

Time 2026-05-05 23:01
Airport Governador Jorge Teixeira de Oliveira International Airport (SBPV)

Arrival

Time 2026-05-06 00:07
Airport Eduardo Gomes International Airport (SBEG)
Time Latitude Longitude Altitude Speed Heading
2026-05-05 22:50 -8.71419 -63.89931 298 ft 0 kts 86°
2026-05-05 22:53 -8.71420 -63.89936 302 ft 3 kts 86°
2026-05-05 22:53 -8.71421 -63.89955 301 ft 3 kts 86°
2026-05-05 22:53 -8.71422 -63.89976 301 ft 3 kts 85°
2026-05-05 22:53 -8.71424 -63.89996 298 ft 3 kts 87°
2026-05-05 22:54 -8.71424 -63.90017 298 ft 3 kts 86°
2026-05-05 22:54 -8.71428 -63.90037 301 ft 3 kts 62°
2026-05-05 22:54 -8.71439 -63.90051 298 ft 3 kts 21°
2026-05-05 22:54 -8.71452 -63.90054 298 ft 1 kts 356°
2026-05-05 22:55 -8.71455 -63.90054 298 ft 0 kts 356°
2026-05-05 22:56 -8.71452 -63.90054 298 ft 2 kts 356°
2026-05-05 22:57 -8.71421 -63.90071 301 ft 8 kts 294°
2026-05-05 22:57 -8.71423 -63.90149 301 ft 13 kts 266°
2026-05-05 22:57 -8.71364 -63.90204 301 ft 15 kts 356°
2026-05-05 22:57 -8.71236 -63.90212 298 ft 22 kts 356°
2026-05-05 22:58 -8.71067 -63.90221 299 ft 27 kts 357°
2026-05-05 22:58 -8.70873 -63.90234 301 ft 28 kts 356°
2026-05-05 22:58 -8.70676 -63.90246 300 ft 29 kts 356°
2026-05-05 22:58 -8.70473 -63.90258 300 ft 29 kts 357°
2026-05-05 22:59 -8.70267 -63.90269 300 ft 30 kts 356°
2026-05-05 22:59 -8.70062 -63.90281 301 ft 28 kts 356°
2026-05-05 22:59 -8.69933 -63.90289 299 ft 16 kts 351°
2026-05-05 22:59 -8.69870 -63.90331 302 ft 9 kts 350°
2026-05-05 23:00 -8.69880 -63.90291 299 ft 0 kts 176°
2026-05-05 23:00 -8.69926 -63.90289 301 ft 33 kts 177°
2026-05-05 23:01 -8.70430 -63.90259 301 ft 111 kts 176°
2026-05-05 23:01 -8.71438 -63.90192 359 ft 173 kts 176°
2026-05-05 23:01 -8.72682 -63.90134 1229 ft 181 kts 177°
2026-05-05 23:01 -8.73976 -63.90097 2120 ft 194 kts 178°
2026-05-05 23:02 -8.75425 -63.90059 2682 ft 223 kts 176°
2026-05-05 23:02 -8.77048 -63.89935 3429 ft 242 kts 172°
2026-05-05 23:02 -8.78723 -63.89426 4100 ft 271 kts 148°
2026-05-05 23:02 -8.79962 -63.87965 5121 ft 282 kts 114°
2026-05-05 23:03 -8.80390 -63.86030 6354 ft 285 kts 90°
2026-05-05 23:03 -8.79966 -63.84106 7544 ft 288 kts 64°
2026-05-05 23:03 -8.78716 -63.82543 8710 ft 290 kts 37°
2026-05-05 23:03 -8.76910 -63.81619 9902 ft 294 kts 20°
2026-05-05 23:04 -8.74914 -63.80979 10796 ft 309 kts 17°
2026-05-05 23:04 -8.72789 -63.80388 11624 ft 323 kts 15°
2026-05-05 23:04 -8.70592 -63.79826 12583 ft 329 kts 15°
2026-05-05 23:04 -8.68348 -63.79259 13552 ft 334 kts 14°
2026-05-05 23:05 -8.66071 -63.78716 14524 ft 339 kts 13°
2026-05-05 23:05 -8.63777 -63.78214 15487 ft 344 kts 13°
2026-05-05 23:05 -8.61410 -63.77749 16425 ft 349 kts 11°
2026-05-05 23:05 -8.58997 -63.77357 17298 ft 354 kts
2026-05-05 23:06 -8.56536 -63.77036 18113 ft 358 kts
2026-05-05 23:06 -8.54124 -63.76391 18831 ft 362 kts 26°
2026-05-05 23:06 -8.51898 -63.75185 19572 ft 365 kts 31°
2026-05-05 23:06 -8.49697 -63.73869 20250 ft 370 kts 32°
2026-05-05 23:07 -8.47475 -63.72532 20901 ft 374 kts 31°
2026-05-05 23:07 -8.45224 -63.71186 21534 ft 378 kts 31°
2026-05-05 23:07 -8.42946 -63.69828 22154 ft 382 kts 31°
2026-05-05 23:07 -8.40644 -63.68460 22741 ft 386 kts 31°
2026-05-05 23:08 -8.38353 -63.67096 23300 ft 390 kts 31°
2026-05-05 23:08 -8.36007 -63.65695 23846 ft 393 kts 31°
2026-05-05 23:08 -8.33638 -63.64282 24375 ft 397 kts 31°
2026-05-05 23:08 -8.31255 -63.62856 24896 ft 400 kts 31°
2026-05-05 23:09 -8.28851 -63.61416 25371 ft 403 kts 31°
2026-05-05 23:09 -8.26431 -63.59964 25859 ft 406 kts 31°
2026-05-05 23:09 -8.24010 -63.58467 26285 ft 409 kts 33°
2026-05-05 23:09 -8.21641 -63.56859 26710 ft 412 kts 35°
2026-05-05 23:10 -8.19300 -63.55241 27125 ft 414 kts 34°
2026-05-05 23:10 -8.16905 -63.53603 27532 ft 417 kts 34°
2026-05-05 23:10 -8.14484 -63.51967 27945 ft 420 kts 34°
2026-05-05 23:10 -8.12048 -63.50328 28352 ft 422 kts 34°
2026-05-05 23:11 -8.09597 -63.48680 28730 ft 425 kts 34°
2026-05-05 23:11 -8.07129 -63.47022 29106 ft 427 kts 34°
2026-05-05 23:11 -8.04652 -63.45356 29456 ft 429 kts 34°
2026-05-05 23:11 -8.02156 -63.43678 29779 ft 432 kts 34°
2026-05-05 23:12 -7.99650 -63.41995 30114 ft 434 kts 34°
2026-05-05 23:12 -7.97167 -63.40326 30402 ft 436 kts 34°
2026-05-05 23:12 -7.94632 -63.38622 30640 ft 439 kts 34°
2026-05-05 23:12 -7.92085 -63.36912 30928 ft 441 kts 34°
2026-05-05 23:13 -7.89527 -63.35193 31227 ft 443 kts 34°
2026-05-05 23:13 -7.86958 -63.33469 31514 ft 444 kts 34°
2026-05-05 23:13 -7.84377 -63.31738 31781 ft 447 kts 34°
2026-05-05 23:13 -7.81785 -63.29997 32050 ft 449 kts 34°
2026-05-05 23:14 -7.79187 -63.28248 32359 ft 449 kts 34°
2026-05-05 23:14 -7.76592 -63.26503 32750 ft 448 kts 34°
2026-05-05 23:14 -7.74035 -63.24786 33116 ft 447 kts 34°
2026-05-05 23:14 -7.71453 -63.23054 33467 ft 446 kts 34°
2026-05-05 23:15 -7.68873 -63.21323 33802 ft 445 kts 33°
2026-05-05 23:15 -7.66294 -63.19592 34119 ft 445 kts 34°
2026-05-05 23:15 -7.63722 -63.17863 34432 ft 444 kts 34°
2026-05-05 23:15 -7.61151 -63.16138 34739 ft 443 kts 34°
2026-05-05 23:16 -7.58593 -63.14416 35047 ft 443 kts 34°
2026-05-05 23:16 -7.56008 -63.12681 35015 ft 450 kts 34°
2026-05-05 23:16 -7.50761 -63.09166 34921 ft 463 kts 33°
2026-05-05 23:17 -7.45370 -63.05569 34913 ft 466 kts 34°
2026-05-05 23:17 -7.39960 -63.01956 34914 ft 466 kts 34°
2026-05-05 23:18 -7.34553 -62.98346 34912 ft 467 kts 34°
2026-05-05 23:18 -7.29144 -62.94733 34913 ft 466 kts 34°
2026-05-05 23:19 -7.23771 -62.91150 34917 ft 466 kts 34°
2026-05-05 23:19 -7.18360 -62.87537 34928 ft 466 kts 34°
2026-05-05 23:20 -7.12952 -62.83933 34927 ft 466 kts 34°
2026-05-05 23:20 -7.07545 -62.80332 34925 ft 467 kts 34°
2026-05-05 23:21 -7.02167 -62.76749 34926 ft 466 kts 34°
2026-05-05 23:21 -6.96763 -62.73143 34927 ft 466 kts 34°
2026-05-05 23:22 -6.91358 -62.69537 34934 ft 466 kts 34°
2026-05-05 23:22 -6.85966 -62.65918 34927 ft 466 kts 34°
2026-05-05 23:23 -6.80611 -62.62320 34925 ft 466 kts 34°
2026-05-05 23:23 -6.75216 -62.58698 34928 ft 466 kts 34°
2026-05-05 23:24 -6.69823 -62.55084 34924 ft 466 kts 34°
2026-05-05 23:24 -6.64431 -62.51468 34927 ft 466 kts 34°
2026-05-05 23:25 -6.59041 -62.47852 34925 ft 466 kts 34°
2026-05-05 23:25 -6.53688 -62.44264 34926 ft 465 kts 34°
2026-05-05 23:26 -6.48290 -62.40665 34925 ft 465 kts 34°
2026-05-05 23:26 -6.42877 -62.37090 34933 ft 465 kts 34°
2026-05-05 23:27 -6.37464 -62.33513 34937 ft 465 kts 34°
2026-05-05 23:27 -6.32093 -62.29959 34937 ft 465 kts 34°
2026-05-05 23:28 -6.26687 -62.26382 34934 ft 465 kts 34°
2026-05-05 23:28 -6.21277 -62.22806 34936 ft 465 kts 34°
2026-05-05 23:29 -6.15865 -62.19230 34937 ft 465 kts 34°
2026-05-05 23:29 -6.10497 -62.15681 34934 ft 465 kts 34°
2026-05-05 23:30 -6.05089 -62.12108 34941 ft 466 kts 34°
2026-05-05 23:30 -5.99681 -62.08535 34936 ft 465 kts 34°
2026-05-05 23:31 -5.94267 -62.04964 34936 ft 465 kts 34°
2026-05-05 23:31 -5.88897 -62.01416 34937 ft 465 kts 34°
2026-05-05 23:32 -5.83489 -61.97843 34952 ft 465 kts 34°
2026-05-05 23:32 -5.78081 -61.94271 34940 ft 466 kts 34°
2026-05-05 23:33 -5.72669 -61.90700 34936 ft 465 kts 34°
2026-05-05 23:33 -5.67258 -61.87134 34933 ft 465 kts 34°
2026-05-05 23:34 -5.61882 -61.83589 34934 ft 466 kts 34°
2026-05-05 23:34 -5.56332 -61.80237 34959 ft 466 kts 28°
2026-05-05 23:35 -5.50554 -61.77271 34951 ft 466 kts 28°
2026-05-05 23:35 -5.44817 -61.74231 34954 ft 466 kts 28°
2026-05-05 23:36 -5.39131 -61.71185 34963 ft 466 kts 28°
2026-05-05 23:36 -5.33409 -61.68114 34963 ft 467 kts 28°
2026-05-05 23:37 -5.27681 -61.65048 34963 ft 467 kts 28°
2026-05-05 23:37 -5.21952 -61.61977 34962 ft 467 kts 28°
2026-05-05 23:38 -5.16229 -61.58909 34965 ft 466 kts 29°
2026-05-05 23:38 -5.10538 -61.55859 34963 ft 467 kts 29°
2026-05-05 23:39 -5.04813 -61.52787 34962 ft 467 kts 29°
2026-05-05 23:39 -4.99083 -61.49720 34964 ft 467 kts 28°
2026-05-05 23:40 -4.93352 -61.46652 34964 ft 467 kts 28°
2026-05-05 23:40 -4.87660 -61.43606 34976 ft 467 kts 29°
2026-05-05 23:41 -4.81926 -61.40535 34963 ft 467 kts 29°
2026-05-05 23:41 -4.76194 -61.37468 34965 ft 467 kts 29°
2026-05-05 23:42 -4.70462 -61.34400 34962 ft 467 kts 29°
2026-05-05 23:42 -4.64728 -61.31328 34962 ft 467 kts 28°
2026-05-05 23:43 -4.59033 -61.28284 34963 ft 467 kts 28°
2026-05-05 23:43 -4.53298 -61.25219 34973 ft 467 kts 29°
2026-05-05 23:44 -4.47561 -61.22153 34973 ft 467 kts 28°
2026-05-05 23:44 -4.41837 -61.19092 34628 ft 461 kts 29°
2026-05-05 23:45 -4.39089 -61.17620 34381 ft 445 kts 29°
2026-05-05 23:45 -4.36377 -61.16168 33702 ft 441 kts 29°
2026-05-05 23:45 -4.33696 -61.14735 33178 ft 433 kts 29°
2026-05-05 23:45 -4.31048 -61.13324 32548 ft 428 kts 29°
2026-05-05 23:46 -4.28444 -61.11931 31998 ft 422 kts 29°
2026-05-05 23:46 -4.25869 -61.10551 31450 ft 416 kts 29°
2026-05-05 23:46 -4.23331 -61.09197 30864 ft 412 kts 29°
2026-05-05 23:46 -4.20811 -61.07853 30366 ft 410 kts 29°
2026-05-05 23:47 -4.18269 -61.06496 29783 ft 417 kts 29°
2026-05-05 23:47 -4.15726 -61.05138 29257 ft 422 kts 29°
2026-05-05 23:47 -4.13121 -61.03748 28666 ft 426 kts 28°
2026-05-05 23:47 -4.10504 -61.02351 28108 ft 427 kts 28°
2026-05-05 23:48 -4.07880 -61.00950 27540 ft 427 kts 28°
2026-05-05 23:48 -4.05265 -60.99554 26967 ft 425 kts 28°
2026-05-05 23:48 -4.02675 -60.98171 26404 ft 420 kts 28°
2026-05-05 23:48 -4.00111 -60.96803 25848 ft 415 kts 28°
2026-05-05 23:49 -3.97578 -60.95450 25319 ft 410 kts 28°
2026-05-05 23:49 -3.95100 -60.94128 24774 ft 408 kts 28°
2026-05-05 23:49 -3.92608 -60.92799 24249 ft 404 kts 28°
2026-05-05 23:49 -3.90136 -60.91480 23688 ft 401 kts 28°
2026-05-05 23:50 -3.87685 -60.90173 23165 ft 398 kts 28°
2026-05-05 23:50 -3.85254 -60.88876 22644 ft 394 kts 28°
2026-05-05 23:50 -3.82842 -60.87591 22120 ft 391 kts 28°
2026-05-05 23:50 -3.80452 -60.86315 21608 ft 388 kts 28°
2026-05-05 23:51 -3.78080 -60.85048 21091 ft 384 kts 28°
2026-05-05 23:51 -3.75761 -60.83810 20586 ft 381 kts 28°
2026-05-05 23:51 -3.73433 -60.82568 20082 ft 378 kts 29°
2026-05-05 23:51 -3.71148 -60.81302 19583 ft 374 kts 34°
2026-05-05 23:52 -3.69034 -60.79799 19098 ft 371 kts 37°
2026-05-05 23:52 -3.66961 -60.78268 18577 ft 371 kts 37°
2026-05-05 23:52 -3.64903 -60.76722 18105 ft 367 kts 38°
2026-05-05 23:52 -3.62867 -60.75202 17614 ft 363 kts 37°
2026-05-05 23:53 -3.60854 -60.73701 17135 ft 360 kts 37°
2026-05-05 23:53 -3.58855 -60.72211 16663 ft 356 kts 37°
2026-05-05 23:53 -3.56870 -60.70733 16190 ft 354 kts 37°
2026-05-05 23:53 -3.54928 -60.69286 15737 ft 352 kts 37°
2026-05-05 23:54 -3.52976 -60.67830 15270 ft 349 kts 37°
2026-05-05 23:54 -3.51037 -60.66382 14810 ft 347 kts 38°
2026-05-05 23:54 -3.49112 -60.64946 14352 ft 344 kts 38°
2026-05-05 23:54 -3.47203 -60.63522 13895 ft 339 kts 38°
2026-05-05 23:55 -3.45328 -60.62127 13437 ft 332 kts 38°
2026-05-05 23:55 -3.43497 -60.60763 13006 ft 325 kts 37°
2026-05-05 23:55 -3.41725 -60.59446 12582 ft 319 kts 38°
2026-05-05 23:55 -3.39964 -60.58134 12164 ft 313 kts 38°
2026-05-05 23:56 -3.38232 -60.56843 11755 ft 308 kts 38°
2026-05-05 23:56 -3.36527 -60.55576 11347 ft 303 kts 38°
2026-05-05 23:56 -3.34854 -60.54328 10932 ft 298 kts 38°
2026-05-05 23:56 -3.33203 -60.53095 10554 ft 294 kts 38°
2026-05-05 23:57 -3.31575 -60.51877 10166 ft 291 kts 38°
2026-05-05 23:57 -3.29959 -60.50669 9780 ft 289 kts 38°
2026-05-05 23:57 -3.28346 -60.49467 9406 ft 289 kts 38°
2026-05-05 23:57 -3.26742 -60.48270 9077 ft 287 kts 38°
2026-05-05 23:58 -3.25162 -60.47088 8759 ft 287 kts 38°
2026-05-05 23:58 -3.23560 -60.45895 8444 ft 286 kts 38°
2026-05-05 23:58 -3.21972 -60.44712 8188 ft 284 kts 38°
2026-05-05 23:58 -3.20386 -60.43532 7915 ft 283 kts 38°
2026-05-05 23:59 -3.18804 -60.42354 7641 ft 283 kts 37°
2026-05-05 23:59 -3.17229 -60.41184 7368 ft 282 kts 37°
2026-05-05 23:59 -3.15660 -60.40016 7093 ft 280 kts 38°
2026-05-05 23:59 -3.14100 -60.38853 6821 ft 279 kts 38°
2026-05-06 00:00 -3.12550 -60.37687 6542 ft 277 kts 38°
2026-05-06 00:00 -3.11033 -60.36546 6200 ft 273 kts 38°
2026-05-06 00:00 -3.09536 -60.35444 5871 ft 260 kts 37°
2026-05-06 00:00 -3.08124 -60.34409 5550 ft 244 kts 38°
2026-05-06 00:01 -3.06793 -60.33411 5275 ft 236 kts 38°
2026-05-06 00:01 -3.05499 -60.32426 4949 ft 235 kts 38°
2026-05-06 00:01 -3.04300 -60.31332 4609 ft 233 kts 57°
2026-05-06 00:01 -3.03795 -60.29839 4365 ft 224 kts 85°
2026-05-06 00:02 -3.03784 -60.28331 4217 ft 211 kts 92°
2026-05-06 00:02 -3.03833 -60.26908 4037 ft 200 kts 90°
2026-05-06 00:02 -3.03820 -60.25545 3824 ft 192 kts 89°
2026-05-06 00:02 -3.03816 -60.24244 3616 ft 187 kts 90°
2026-05-06 00:03 -3.03824 -60.22955 3414 ft 184 kts 90°
2026-05-06 00:03 -3.03829 -60.21683 3226 ft 183 kts 90°
2026-05-06 00:03 -3.03831 -60.20402 3013 ft 186 kts 90°
2026-05-06 00:03 -3.03831 -60.19108 2783 ft 186 kts 90°
2026-05-06 00:04 -3.03834 -60.17817 2530 ft 184 kts 89°
2026-05-06 00:04 -3.03838 -60.16565 2305 ft 174 kts 89°
2026-05-06 00:04 -3.03841 -60.15404 2053 ft 162 kts 89°
2026-05-06 00:04 -3.03844 -60.14309 1853 ft 153 kts 89°
2026-05-06 00:05 -3.03846 -60.12264 1465 ft 146 kts 89°
2026-05-06 00:05 -3.03849 -60.11245 1277 ft 147 kts 89°
2026-05-06 00:05 -3.03853 -60.10222 1080 ft 147 kts 89°
2026-05-06 00:06 -3.03855 -60.09200 881 ft 147 kts 89°
2026-05-06 00:06 -3.03856 -60.08181 682 ft 146 kts 89°
2026-05-06 00:06 -3.03853 -60.07166 491 ft 146 kts 89°
2026-05-06 00:06 -3.03856 -60.06155 308 ft 144 kts 89°
2026-05-06 00:07 -3.03859 -60.05225 266 ft 114 kts 90°
2026-05-06 00:07 -3.03860 -60.04612 268 ft 68 kts 91°
2026-05-06 00:07 -3.03861 -60.04175 268 ft 60 kts 90°
2026-05-06 00:07 -3.03862 -60.03856 267 ft 20 kts 90°
2026-05-06 00:08 -3.03815 -60.03772 267 ft 14 kts 17°
2026-05-06 00:08 -3.03720 -60.03789 267 ft 15 kts 323°
2026-05-06 00:08 -3.03669 -60.03897 267 ft 20 kts 286°
2026-05-06 00:08 -3.03629 -60.04043 267 ft 24 kts 285°
2026-05-06 00:09 -3.03583 -60.04208 267 ft 24 kts 293°
2026-05-06 00:09 -3.03483 -60.04335 267 ft 23 kts 325°
2026-05-06 00:09 -3.03353 -60.04386 267 ft 16 kts 336°
2026-05-06 00:09 -3.03340 -60.04467 267 ft 5 kts 262°
2026-05-06 00:10 -3.03322 -60.04487 267 ft 4 kts 343°
2026-05-06 00:10 -3.03282 -60.04494 267 ft 7 kts 349°
2026-05-06 00:10 -3.03257 -60.04499 267 ft 1 kts 349°